Bedford, MA

5:33 PM EDT on October 18, 2017 (GMT -0400)
Hanscom

Weather History for KBED - November, 2013

Change the Weather History Date:

Tuesday, November 19, 2013

  Actual Average Record
Temperature  
Mean Temperature 38 °F -  
Max Temperature 46 °F 49 °F 69 °F (1957)
Min Temperature 28 °F 28 °F 14 °F (1986)
Degree Days  
Heating Degree Days 27    
Moisture  
Dew Point 20 °F    
Average Humidity 48    
Maximum Humidity 57    
Minimum Humidity 37    
Precipitation  
Precipitation 0.00 in - - ()
Sea Level Pressure  
Sea Level Pressure 30.01 in    
Wind  
Wind Speed 16 mph (WNW)    
Max Wind Speed 23 mph    
Max Gust Speed 34 mph    
Visibility 10 miles    
Events      
Averages and records for this station are not official NWS values.
T = Trace of Precipitation, MM = Missing Value Source: NWS Daily Summary

Daily Weather History Graph

Daily Weather History Graph

Search for Another Location

Airport or City:

Trip Planner

Search our weather history database for the weather conditions in past years. The results will help you decide how hot, cold, wet, or windy it might be!

Date:

Astronomy

Nov. 19, 2013 Rise Set
Actual Time 6:41 AM EST 4:19 PM EST
Civil Twilight 6:10 AM EST 4:50 PM EST
Nautical Twilight 5:36 AM EST 5:24 PM EST
Astronomical Twilight 5:03 AM EST 5:57 PM EST
Moon 6:07 PM EST (11/19) 8:18 AM EST (11/19)
Length of Visible Light 10h 39m
Length of Day
9h 38m
Waning Gibbous, 96% of the Moon is Illuminated
Nov 19
Waning Gibbous
Nov 25
Last Quarter
Dec 2
New
Dec 9
First Quarter
Dec 17
Full

Hourly Weather History & Observations

Time (EST) Temp. Windchill Dew Point Humidity Pressure Visibility Wind Dir Wind Speed Gust Speed Precip Events Conditions
12:56 AM 46.9 °F - 28.0 °F 48% 29.70 in 10.0 mi WNW 23.0 mph 31.1 mph N/A   Clear
1:56 AM 43.0 °F 34.8 °F 25.0 °F 49% 29.73 in 10.0 mi West 18.4 mph 26.5 mph N/A   Clear
2:56 AM 42.1 °F 33.9 °F 24.1 °F 49% 29.75 in 10.0 mi West 17.3 mph 25.3 mph N/A   Clear
3:56 AM 39.9 °F 33.9 °F 23.0 °F 51% 29.77 in 10.0 mi West 9.2 mph - N/A   Clear
4:56 AM 39.0 °F 33.4 °F 23.0 °F 53% 29.78 in 10.0 mi West 8.1 mph 17.3 mph N/A   Clear
5:56 AM 39.9 °F 31.1 °F 23.0 °F 51% 29.80 in 10.0 mi West 17.3 mph 20.7 mph N/A   Overcast
6:56 AM 41.0 °F 35.2 °F 24.1 °F 51% 29.84 in 10.0 mi West 9.2 mph - N/A   Overcast
7:56 AM 39.0 °F 29.3 °F 25.0 °F 57% 29.90 in 10.0 mi NW 19.6 mph 27.6 mph N/A   Overcast
8:56 AM 39.0 °F 29.3 °F 19.9 °F 46% 29.93 in 10.0 mi NW 19.6 mph 26.5 mph N/A   Scattered Clouds
9:56 AM 39.9 °F 30.8 °F 19.0 °F 43% 29.96 in 10.0 mi NW 18.4 mph 27.6 mph N/A   Scattered Clouds
10:56 AM 39.9 °F 30.5 °F 19.0 °F 43% 29.98 in 10.0 mi NW 19.6 mph 34.5 mph N/A   Mostly Cloudy
11:56 AM 41.0 °F 32.8 °F 17.1 °F 38% 29.99 in 10.0 mi WNW 16.1 mph 27.6 mph N/A   Clear
12:56 PM 41.0 °F 31.4 °F 17.1 °F 38% 29.99 in 10.0 mi NW 21.9 mph 28.8 mph N/A   Clear
1:56 PM 42.1 °F 35.2 °F 17.1 °F 37% 30.02 in 10.0 mi NW 12.7 mph 25.3 mph N/A   Clear
2:56 PM 41.0 °F 32.8 °F 17.1 °F 38% 30.05 in 10.0 mi NW 16.1 mph 24.2 mph N/A   Clear
3:56 PM 39.0 °F 32.3 °F 17.1 °F 41% 30.09 in 10.0 mi NW 10.4 mph 19.6 mph N/A   Clear
4:56 PM 37.0 °F 28.9 °F 17.1 °F 44% 30.14 in 10.0 mi WNW 12.7 mph 21.9 mph N/A   Clear
5:56 PM 35.1 °F 26.4 °F 17.1 °F 48% 30.17 in 10.0 mi NW 12.7 mph - N/A   Clear
6:56 PM 35.1 °F 26.9 °F 17.1 °F 48% 30.21 in 10.0 mi WNW 11.5 mph 20.7 mph N/A   Clear
7:56 PM 33.1 °F 23.9 °F 17.1 °F 52% 30.23 in 10.0 mi NW 12.7 mph - N/A   Clear
8:56 PM 32.0 °F 23.0 °F 17.1 °F 54% 30.26 in 10.0 mi NW 11.5 mph 19.6 mph N/A   Clear
9:56 PM 30.9 °F 20.7 °F 15.1 °F 52% 30.27 in 10.0 mi NW 13.8 mph 21.9 mph N/A   Clear
10:56 PM 30.0 °F 21.1 °F 15.1 °F 54% 30.31 in 10.0 mi NW 10.4 mph - N/A   Clear
11:56 PM 28.0 °F 19.3 °F 14.0 °F 56% 30.32 in 10.0 mi WNW 9.2 mph - N/A   Clear